2019-071P (45124 NORAD) Tracking and Keplerian Element Data

This shows tracking and keplerian element data for the satellite.

Feedback or suggestion? Click here.




ElementValue
Catalog45124
Name2019-071P
Epoch Orbit944
Epoch Day94.0564301
Epoch Year2020
RAAN7.5321
Inclination51.6439
Eccentricity0.0011258
Argument of Perigee111.6708
Mean Anonmoly248.5474
Mean Motion15.33470135
Decay Rate2.765E-05
L11 45124U 19071P 20094.05643010 .00002765 00000-0 95553-4 0 9999
L22 45124 51.6439 7.5321 0011258 111.6708 248.5474 15.33470135 9448

Live tracking and technical data element details for 2019-071P (NORAD 45124). 2019-071P can be tracked NOW for your location showing map with azimuth and elevation plus other details from your city location.

Track the satellite on the map from your city or location and see movement details for azimuth, elevation, latitude, longitude, range, height, and movement on the map or in text.







IsCatalogInMostPopularTable: catalog: 45124, numindb: 12
Update: records affected: 1



GetName: 45124 2019-071P

Hit Count: updated at: Fri, 03 Apr 2020 22:48:45 GMT